Location: Newark
(53.7833°N, 9.4833°E)
Time: 19:46:21
(UTC+00:00)

Envisat - Pass Details

Date: 16 December 2019
Orbit: 764 x 766 km, 98.1° (Epoch: 18 January)

Event Time Altitude Azimuth Distance (km) Brightness Sun altitude
Rises 18:56:24 0° 223° (SW) 3,227 6.7 -33.1°
Reaches altitude 10° 19:00:12 10° 253° (WSW) 2,307 6.2 -33.6°
Maximum altitude 19:02:18 12° 277° (W) 2,142 6.1 -34.0°
Drops below altitude 10° 19:04:25 10° 302° (WNW) 2,314 6.2 -34.3°
Sets 19:08:16 0° 332° (NNW) 3,247 6.7 -34.8°
